Precipitable_Water
1.98 2.07 2.01 1.65 1.27 1.28 0.91 1.00 1.02 0.92 1.06 1.07 1.13 1.20 1.25 1.32 1.20 1.16 1.86 1.99 1.94 1.90 1.98 2.13 2.20 2.29 2.31 2.29 2.26 2.24 2.21 2.12 2.07 2.05 2.09 2.04 1.97 1.91 1.78 1.78 1.78 1.75 1.69 1.69 1.69 1.66 1.61 1.64 1.62
2.03 2.01 1.80 1.47 1.21 1.02 0.96 1.03 1.06 0.98 1.10 1.06 1.13 1.25 1.43 1.18 1.51 1.53 1.58 1.84 1.98 1.98 1.92 1.97 2.00 2.04 2.13 2.17 2.14 2.17 2.17 2.13 2.14 2.06 2.06 2.09 1.97 1.80 1.74 1.75 1.65 1.62 1.63 1.61 1.65 1.68 1.74 1.79 1.71
1.97 1.94 1.41 1.26 1.25 1.06 1.08 1.01 0.96 0.98 1.05 1.15 1.06 1.19 1.30 1.33 1.51 1.54 1.75 1.88 1.96 2.05 1.99 2.01 2.02 1.98 2.04 1.99 2.00 2.03 2.06 2.09 2.13 2.09 2.04 2.09 2.06 1.83 1.66 1.63 1.63 1.63 1.61 1.70 1.74 1.79 1.74 1.66 1.66
1.64 1.63 1.45 0.99 1.02 1.20 1.27 1.15 1.24 1.10 1.09 0.99 1.12 1.15 1.25 1.57 1.56 1.68 1.74 1.77 1.94 2.09 2.16 2.10 2.04 2.10 2.18 2.16 2.15 2.11 2.02 2.00 2.03 2.09 2.08 2.05 2.04 1.76 1.66 1.66 1.64 1.66 1.71 1.74 1.75 1.76 1.74 1.68 1.64
1.76 1.46 1.07 0.99 1.07 1.26 1.38 1.33 1.28 1.26 1.17 0.97 1.08 1.20 1.17 1.40 1.58 1.66 1.68 1.84 1.86 1.95 2.04 2.09 2.13 2.21 2.18 2.23 2.17 2.18 2.12 2.12 2.12 2.11 2.11 2.11 2.01 1.76 1.62 1.62 1.69 1.70 1.74 1.74 1.77 1.78 1.76 1.70 1.61
1.33 1.39 0.97 0.88 1.01 1.36 1.31 1.32 1.37 1.25 1.15 1.00 1.01 1.11 1.18 1.42 1.53 1.62 1.73 1.75 1.95 1.91 2.00 1.99 2.11 2.14 2.17 2.19 2.20 2.25 2.21 2.19 2.13 2.17 2.12 2.13 1.96 1.64 1.70 1.61 1.72 1.75 1.74 1.76 1.75 1.70 1.65 1.54 1.59
1.14 1.17 0.96 0.97 1.05 1.24 1.31 1.53 1.37 1.29 1.30 1.09 1.14 1.11 1.30 1.31 1.53 1.63 1.67 1.75 1.98 1.92 1.99 2.00 2.01 2.03 2.05 2.17 2.15 2.13 2.22 2.23 2.22 2.16 2.12 2.06 1.87 1.70 1.66 1.58 1.70 1.78 1.77 1.76 1.71 1.71 1.72 1.71 1.74
1.24 1.36 1.01 1.02 1.00 1.14 1.35 1.47 1.55 1.32 1.32 1.44 1.20 1.03 1.06 1.32 1.58 1.67 1.74 1.81 1.96 2.11 2.00 1.98 1.95 2.01 2.01 2.13 2.23 2.13 2.23 2.19 2.17 2.14 2.08 1.96 1.78 1.70 1.62 1.54 1.70 1.75 1.73 1.73 1.77 1.84 1.85 1.80 1.79
1.37 1.26 1.05 0.97 1.05 1.08 1.37 1.33 1.44 1.51 1.41 1.29 1.26 1.21 1.38 1.46 1.60 1.63 1.71 1.81 1.90 2.03 2.05 2.02 1.96 2.11 2.13 2.09 2.13 2.15 2.21 2.19 2.16 2.08 2.06 1.86 1.67 1.62 1.62 1.74 1.66 1.71 1.73 1.85 1.86 1.88 1.94 1.97 1.81
1.13 1.08 1.11 1.14 1.14 1.22 1.33 1.42 1.41 1.33 1.41 1.33 1.25 1.26 1.33 1.41 1.45 1.49 1.51 1.66 1.74 2.05 2.06 2.01 2.13 2.15 2.12 2.08 2.10 2.18 2.17 2.15 2.08 2.06 1.81 1.81 1.82 1.71 1.81 1.73 1.67 1.75 1.83 1.84 1.83 1.96 2.02 2.07 1.93
1.00 1.22 1.07 1.04 1.14 1.32 1.30 1.32 1.36 1.35 1.30 1.39 1.20 1.14 1.30 1.28 1.37 1.41 1.47 1.53 1.69 1.76 1.89 2.15 2.18 2.27 2.12 2.04 2.05 2.09 2.11 2.08 2.04 2.01 1.78 1.93 1.75 1.83 1.72 1.58 1.69 1.80 1.79 1.84 1.98 2.07 2.04 2.00 1.82
0.76 1.07 1.04 1.06 1.13 1.17 1.21 1.35 1.35 1.44 1.40 1.54 1.45 1.27 1.26 1.33 1.28 1.37 1.52 1.59 1.66 1.78 1.89 1.96 2.09 2.07 2.10 2.08 1.97 2.00 1.97 2.10 2.03 2.02 2.08 1.85 1.72 1.59 1.66 1.66 1.80 1.84 1.82 1.98 1.61 1.92 1.96 2.06 2.00
0.84 1.18 0.97 1.03 1.08 1.19 1.19 1.23 1.44 1.45 1.53 1.53 1.44 1.38 1.25 1.32 1.31 1.44 1.47 1.58 1.70 1.75 1.90 1.97 1.99 2.06 2.15 2.16 2.06 2.21 2.23 2.22 1.96 1.82 2.13 1.98 1.69 1.65 1.70 1.83 1.82 1.88 1.85 1.82 2.15 1.99 1.99 1.82 2.08
0.87 0.86 0.94 1.03 1.07 1.09 1.06 1.16 1.32 1.33 1.51 1.36 1.37 1.32 1.22 1.37 1.35 1.34 1.57 1.51 1.59 1.72 1.86 1.97 2.03 2.04 2.20 2.19 2.10 2.22 2.39 2.32 2.01 1.80 2.00 1.87 1.62 1.60 1.74 1.78 1.81 1.85 1.86 2.03 1.95 1.81 2.02 2.09 1.95
0.83 0.70 0.96 1.17 0.99 1.04 1.07 1.04 1.23 1.38 1.51 1.31 1.28 1.34 1.33 1.27 1.41 1.35 1.38 1.48 1.56 1.68 1.79 1.81 2.01 2.12 2.12 2.06 2.15 2.11 2.16 2.43 2.04 2.14 2.17 1.93 1.71 1.50 1.66 1.77 1.80 1.94 1.77 1.72 1.81 1.83 1.82 1.94 1.82
0.61 0.79 0.76 1.03 0.96 1.00 1.00 0.89 1.21 1.36 1.24 1.25 1.25 1.29 1.30 1.28 1.32 1.27 1.40 1.50 1.55 1.63 1.61 1.73 1.86 1.96 2.11 2.10 2.15 2.08 2.10 2.08 2.36 2.09 2.20 1.93 1.80 1.58 1.62 1.75 1.86 2.21 1.68 1.81 2.08 1.87 1.60 1.89 1.91
0.84 0.76 0.69 0.88 0.92 0.77 0.92 0.84 1.12 1.27 1.25 1.21 1.26 1.34 1.31 1.27 1.35 1.39 1.32 1.38 1.55 1.54 1.60 1.65 1.78 1.86 1.97 2.08 2.17 1.98 2.00 1.97 2.08 1.99 2.03 1.82 1.81 1.65 1.61 1.75 1.85 1.82 1.71 1.96 1.88 1.82 1.85 2.03 1.87
0.68 0.73 0.70 0.60 0.81 0.67 0.68 0.76 0.96 1.50 1.24 1.18 1.30 1.35 1.26 1.33 1.43 1.45 1.35 1.43 1.46 1.56 1.58 1.60 1.67 1.73 1.89 1.98 2.09 1.90 1.84 1.99 1.93 1.99 1.92 1.72 1.70 1.72 1.57 1.70 2.23 1.65 1.60 1.97 1.82 1.53 2.14 1.78 1.53
0.57 0.50 0.47 0.49 0.67 0.59 0.51 0.71 0.94 1.04 1.14 1.13 1.17 1.29 1.29 1.29 1.46 1.56 1.49 1.54 1.47 1.50 1.51 1.57 1.62 1.74 1.89 1.91 1.85 1.79 1.78 1.85 1.80 1.97 1.98 1.79 1.76 1.71 1.61 1.54 1.50 1.49 1.51 1.83 1.95 1.76 1.74 1.92 1.83
0.44 0.41 0.45 0.51 0.61 0.61 0.52 0.55 0.73 1.02 1.03 1.03 1.12 1.18 1.26 1.33 1.38 1.55 1.58 1.50 1.45 1.46 1.50 1.54 1.60 1.73 1.84 1.87 1.78 1.77 1.68 1.67 1.72 1.70 1.82 1.86 1.80 1.77 1.53 1.39 1.52 1.45 1.36 1.44 1.48 1.39 1.34 1.63 1.96
0.40 0.35 0.38 0.45 0.55 0.50 0.43 0.41 0.74 0.90 1.19 1.06 1.09 1.21 1.30 1.32 1.35 1.45 1.52 1.54 1.45 1.51 1.53 1.49 1.52 1.61 1.73 1.80 1.78 1.78 1.82 1.81 1.85 1.66 1.77 1.89 1.90 1.92 1.68 1.46 1.46 1.46 1.34 1.37 1.47 1.53 1.31 1.33 1.25
0.34 0.38 0.39 0.43 0.44 0.30 0.45 0.36 0.66 0.75 0.84 0.97 0.99 1.13 1.24 1.29 1.39 1.36 1.49 1.44 1.46 1.50 1.56 1.56 1.52 1.56 1.55 1.73 1.66 1.57 1.54 1.60 1.74 1.74 1.85 2.03 1.94 1.87 1.84 1.60 1.37 1.37 1.31 1.23 1.37 1.64 1.32 1.34 1.22
0.30 0.36 0.39 0.47 0.41 0.36 0.40 0.44 0.71 0.84 1.02 0.97 0.95 1.06 1.15 1.25 1.31 1.27 1.43 1.60 1.44 1.52 1.53 1.52 1.49 1.54 1.55 1.55 1.55 1.55 1.52 1.66 1.74 1.82 1.80 1.87 1.76 1.76 1.69 1.58 1.41 1.28 1.22 1.19 1.21 1.41 1.47 1.39 1.26
0.37 0.34 0.35 0.41 0.39 0.35 0.44 0.45 0.57 0.60 0.72 0.76 0.88 0.94 1.11 1.16 1.28 1.34 1.49 1.62 1.47 1.65 1.67 1.61 1.49 1.49 1.55 1.55 1.62 1.58 1.46 1.54 1.53 1.56 1.54 1.57 1.88 1.83 1.68 1.69 1.62 1.61 1.53 1.39 1.29 1.24 1.35 1.26 1.27
0.26 0.29 0.27 0.31 0.36 0.40 0.57 0.56 0.50 0.58 0.61 0.63 0.59 0.68 0.92 1.11 1.24 1.30 1.35 1.48 1.52 1.56 1.64 1.64 1.52 1.51 1.50 1.47 1.50 1.61 1.56 1.64 1.50 1.57 1.45 1.52 1.55 1.67 1.65 1.63 1.67 1.68 1.74 1.71 1.62 1.61 1.55 1.47 1.25
0.29 0.27 0.29 0.32 0.38 0.41 0.52 0.41 0.40 0.47 0.49 0.46 0.50 0.58 0.68 0.90 1.17 1.29 1.32 1.32 1.47 1.61 1.67 1.65 1.54 1.56 1.55 1.51 1.50 1.53 1.57 1.59 1.64 1.69 1.54 1.61 1.69 1.83 1.90 1.89 1.68 1.64 1.73 1.70 1.69 1.73 1.65 1.60 1.64
0.29 0.31 0.34 0.32 0.35 0.31 0.33 0.36 0.44 0.52 0.43 0.44 0.48 0.68 0.75 0.86 1.05 1.20 1.33 1.36 1.44 1.59 1.66 1.66 1.62 1.59 1.64 1.68 1.61 1.58 1.56 1.54 1.58 1.66 1.71 1.69 1.78 1.90 1.88 1.89 1.89 1.87 1.81 1.69 1.66 1.70 1.78 1.72 1.78
0.31 0.34 0.35 0.35 0.26 0.26 0.30 0.39 0.42 0.46 0.50 0.63 0.62 0.73 0.83 0.90 1.02 1.16 1.24 1.33 1.42 1.58 1.68 1.76 1.71 1.65 1.69 1.69 1.72 1.72 1.72 1.65 1.63 1.69 1.71 1.67 1.60 1.83 2.00 1.84 2.09 1.96 1.88 1.78 1.71 1.68 1.76 1.77 1.72
0.39 0.30 0.30 0.35 0.35 0.31 0.30 0.34 0.46 0.47 0.50 0.55 0.56 0.75 0.87 0.93 1.03 1.15 1.23 1.34 1.41 1.53 1.71 1.76 1.78 1.75 1.77 1.75 1.79 1.85 1.88 1.87 1.81 1.80 1.74 1.73 1.76 1.94 1.92 1.84 1.70 1.49 1.73 1.83 1.80 1.71 1.76 1.73 1.66
0.46 0.34 0.32 0.27 0.29 0.35 0.33 0.34 0.49 0.47 0.47 0.53 0.60 0.73 0.95 1.02 1.03 1.07 1.22 1.34 1.42 1.43 1.64 1.72 1.75 1.77 1.81 1.84 1.86 1.89 1.92 1.90 1.89 1.86 1.84 1.82 1.74 1.84 1.94 1.94 1.78 1.60 1.73 1.85 1.80 1.81 1.71 1.68 1.64
Wind_Speed
2 1 1 1 1 3 0 4 10 9 8 8 7 6 7 4 2 5 6 9 13 12 12 12 10 10 10 9 9 8 8 8 9 9 10 10 10 9 9 9 9 10 10 11 11 11 11 10 10
2 3 2 2 1 2 2 8 7 9 8 5 7 7 7 7 3 5 9 11 11 11 12 12 11 11 10 8 7 7 7 8 8 8 9 9 9 9 10 10 10 10 10 11 11 11 11 10 10
2 3 3 3 3 3 2 6 7 7 5 6 4 4 5 5 5 7 10 11 10 8 13 13 12 11 9 8 7 6 7 7 8 8 8 8 8 9 9 10 10 10 11 11 10 10 9 10 9
3 4 4 4 2 6 6 5 6 7 7 6 6 5 4 4 3 8 11 11 10 9 13 12 11 11 9 8 7 6 7 7 7 8 8 8 8 9 9 10 10 10 10 10 9 9 10 10 10
3 4 6 8 5 4 7 3 5 4 6 8 6 7 4 3 5 10 11 10 11 11 10 10 9 9 10 9 7 6 7 7 8 8 8 8 9 9 10 10 10 10 11 10 9 10 10 11 11
2 4 6 7 6 6 2 2 2 2 5 4 5 6 4 3 8 11 10 10 11 9 12 9 8 9 9 6 8 7 7 7 8 9 10 9 10 10 10 10 10 11 10 10 10 10 11 12 12
6 5 6 5 6 6 4 8 2 2 5 6 2 2 2 5 8 9 9 10 9 10 10 9 8 8 8 7 7 6 7 7 7 10 10 11 11 11 10 10 10 10 10 10 10 10 11 12 12
5 4 6 3 6 4 8 6 3 1 4 5 4 2 5 7 9 9 10 10 11 9 9 9 8 8 9 7 6 6 8 6 8 10 12 12 12 11 10 10 10 11 10 9 9 10 11 11 11
1 9 5 4 5 5 7 5 3 1 5 5 6 5 7 8 10 10 9 9 10 9 9 8 8 8 10 8 6 6 7 8 9 9 14 13 13 12 11 10 11 10 10 9 9 10 9 9 9
5 6 4 6 2 2 4 5 4 4 3 2 6 7 8 9 10 9 9 9 9 9 9 8 9 11 10 9 7 6 8 10 8 12 11 15 13 12 11 11 11 11 9 9 8 9 7 7 6
3 7 4 8 5 2 3 4 5 4 2 6 4 5 9 8 9 8 9 9 9 9 10 9 10 10 10 8 8 8 8 10 10 11 16 15 13 12 10 11 11 10 9 7 5 5 6 6 7
3 6 6 5 4 2 2 3 6 4 3 5 4 5 7 10 7 8 7 6 8 9 10 10 11 10 10 9 9 9 9 10 11 12 14 14 12 12 11 10 10 9 7 5 7 6 7 7 8
5 7 4 4 3 2 2 2 3 3 8 6 5 6 7 9 7 7 8 8 9 9 10 10 11 11 11 10 10 9 11 13 12 14 13 12 12 11 11 10 10 7 7 6 3 5 6 7 8
4 5 5 4 4 4 4 3 2 8 9 7 6 7 7 10 8 9 8 8 9 10 9 10 11 12 12 11 10 9 11 14 10 13 12 11 11 11 9 10 8 8 7 3 3 5 5 5 9
7 8 7 5 9 5 5 4 5 6 7 9 8 9 8 8 8 9 9 8 9 9 9 8 11 12 12 12 10 11 10 11 12 13 13 11 11 13 10 10 9 8 7 5 4 4 3 5 6
9 9 5 8 7 4 6 4 6 8 9 10 10 10 10 9 9 7 8 9 10 10 10 9 9 11 12 13 11 11 11 12 9 16 9 13 12 14 12 10 8 8 7 6 4 3 4 2 3
7 10 8 6 6 6 7 6 7 10 9 11 9 10 11 10 10 9 8 10 10 9 10 9 10 10 12 13 12 12 12 13 12 13 10 13 12 14 14 11 9 9 7 6 4 2 6 3 3
7 12 10 6 6 7 11 9 8 8 9 11 11 13 13 14 13 10 10 11 11 10 9 9 10 10 11 13 13 13 14 14 14 13 11 12 13 15 15 12 8 10 8 3 2 3 1 4 6
11 12 11 12 6 10 12 12 10 9 13 11 11 13 14 17 16 14 12 12 11 11 10 10 9 9 10 12 13 14 15 15 15 13 13 13 13 16 16 13 11 11 9 5 5 3 1 1 4
12 12 13 13 9 10 11 14 13 12 12 10 12 13 15 14 17 17 16 13 13 12 11 12 10 9 10 11 12 13 14 14 15 15 14 13 14 15 17 15 12 12 11 8 6 5 5 7 5
13 13 14 14 11 15 16 17 9 13 15 13 13 15 14 14 15 18 18 16 15 14 12 13 12 11 10 11 12 13 12 12 14 15 14 15 14 15 16 15 15 12 12 9 8 6 6 4 2
16 14 14 13 12 14 9 10 13 8 9 16 15 15 16 15 16 17 20 17 17 15 13 13 14 13 12 12 12 13 12 12 13 13 14 13 15 15 16 16 16 16 13 12 10 7 8 6 5
14 14 15 11 13 16 17 11 3 6 11 15 13 15 15 16 16 15 20 20 19 17 15 13 15 15 14 13 13 13 13 13 13 14 12 14 13 14 15 15 16 16 16 15 14 12 9 9 8
17 16 15 14 14 14 16 14 9 8 9 7 14 13 16 17 16 16 18 23 19 19 16 15 16 16 16 16 14 13 14 13 14 14 14 14 14 14 14 14 15 15 15 16 15 15 14 12 10
16 15 13 12 13 11 6 7 5 7 10 10 8 8 14 15 18 16 16 21 21 20 18 16 17 17 17 17 16 15 15 15 15 15 15 15 14 14 14 15 14 14 14 15 16 16 16 14 13
16 16 14 14 11 9 11 12 9 8 8 13 13 13 10 14 17 20 18 20 21 21 20 18 18 18 17 17 17 16 17 16 16 14 15 15 15 14 12 16 15 15 14 13 14 16 17 17 16
15 15 18 21 19 17 15 15 10 11 7 11 12 9 9 11 16 18 19 20 20 21 21 19 19 18 18 17 17 17 17 18 17 16 17 16 16 16 17 15 16 15 15 14 13 14 17 19 17
17 17 16 14 15 15 13 11 12 3 5 2 5 9 9 10 13 18 19 20 21 20 21 21 20 20 18 17 17 16 16 17 17 17 17 17 17 17 16 15 16 16 15 15 14 14 13 17 17
14 17 20 19 16 14 12 6 8 9 9 9 10 8 10 9 11 16 18 21 21 21 21 20 21 21 21 18 16 17 18 20 19 17 17 17 17 16 16 17 18 20 17 16 15 15 15 15 18
17 18 19 18 18 16 14 13 2 6 10 10 7 7 6 9 10 13 17 19 21 22 23 22 21 21 22 19 18 16 15 19 19 18 16 16 17 17 18 17 17 18 19 17 17 17 17 18 18
Wind_Direction
166 124 103 291 349 150 99 117 83 75 51 56 46 74 74 49 276 210 167 171 159 165 168 165 160 155 148 141 137 135 129 122 116 110 109 106 101 102 98 94 89 90 88 89 89 84 79 74 69
216 252 277 275 167 130 83 80 96 70 80 67 52 76 57 46 88 154 163 161 164 170 172 167 162 158 155 151 146 143 139 133 127 120 116 111 103 103 100 97 94 93 92 91 90 85 80 74 70
231 267 285 250 291 269 140 84 72 72 65 50 42 47 20 79 113 143 155 161 160 173 170 169 167 165 163 158 154 150 148 143 140 134 127 119 110 107 104 100 98 96 96 94 90 84 77 72 69
304 266 263 275 275 175 235 107 90 50 43 28 50 54 53 84 131 147 153 156 156 147 159 168 170 172 172 168 166 162 161 159 155 150 140 129 120 114 110 106 103 100 98 97 91 84 77 70 68
293 296 281 290 314 206 181 82 52 34 36 39 67 79 62 58 132 152 153 158 162 156 158 160 168 179 184 179 170 168 167 167 167 165 157 143 130 123 118 110 108 106 105 101 94 85 78 71 73
303 311 305 281 277 296 289 269 130 23 19 61 58 88 44 111 149 152 159 162 162 166 168 164 164 169 174 174 165 163 168 171 172 171 164 151 138 130 123 115 114 114 111 104 97 88 81 80 82
325 322 299 298 277 276 311 285 290 25 12 35 45 60 87 137 158 158 167 173 172 164 166 169 166 171 170 168 167 173 175 165 171 171 165 153 143 134 126 121 122 121 114 108 98 88 85 84 83
0 329 321 300 264 264 228 261 157 176 313 355 333 289 155 157 160 156 160 155 155 160 176 176 175 178 176 171 168 168 163 160 158 164 166 155 148 139 131 127 127 122 115 110 100 89 82 79 82
37 15 317 333 306 272 239 229 243 225 290 0 15 118 140 153 155 162 160 169 175 185 185 184 182 180 173 171 165 167 173 165 159 161 163 160 151 145 138 131 129 125 119 111 100 89 81 70 73
309 347 334 329 348 317 222 206 234 257 347 62 74 104 135 147 161 169 177 170 174 176 179 190 188 176 176 178 179 167 164 160 146 153 163 157 155 152 142 132 130 130 124 116 105 89 74 62 67
277 331 359 9 345 180 266 245 212 197 272 235 139 129 152 156 161 171 177 187 187 193 189 181 184 176 177 179 178 172 170 171 159 155 154 159 158 150 147 138 134 133 130 124 115 95 80 72 75
322 280 341 349 346 318 305 273 239 229 237 221 162 161 165 166 172 180 184 185 193 188 189 195 190 193 192 193 186 180 176 170 166 165 154 164 165 165 154 146 143 141 136 110 112 112 109 102 86
303 293 314 327 329 311 303 304 237 199 198 220 185 184 190 183 185 191 189 186 180 186 188 199 203 202 202 200 196 199 192 183 169 168 168 169 168 171 167 153 149 152 149 134 149 114 109 128 101
260 286 288 308 312 289 276 263 215 229 245 214 200 197 196 180 202 189 195 197 192 195 202 204 203 207 201 202 203 197 193 186 181 178 181 179 180 177 170 169 163 158 163 161 148 139 144 83 96
293 273 254 5 304 297 304 252 262 221 238 224 218 209 203 198 180 193 201 199 191 194 196 197 206 206 208 205 204 205 204 182 190 188 183 187 189 182 181 177 175 174 170 164 154 154 154 101 90
264 271 303 263 279 302 287 294 261 236 226 224 220 211 208 204 198 200 197 196 196 196 200 202 201 203 209 209 207 205 201 196 186 198 190 191 192 189 186 188 187 206 180 169 150 194 136 47 111
297 310 281 224 281 294 272 279 252 228 223 223 227 226 211 213 200 206 210 204 195 203 198 205 204 210 213 209 205 203 198 193 187 187 195 195 196 192 193 192 205 200 198 217 234 255 183 69 112
288 258 261 297 245 295 286 272 260 222 236 225 216 227 222 216 210 210 214 207 208 201 211 206 209 216 214 208 204 201 199 198 195 196 197 197 199 196 196 200 209 209 206 221 236 259 230 92 72
273 297 295 287 269 299 285 285 234 244 236 232 218 231 223 224 222 220 211 208 207 208 211 207 205 207 205 201 203 200 195 198 200 202 200 199 205 202 202 208 214 215 216 233 207 245 293 204 145
281 292 278 279 271 292 283 278 275 236 235 237 224 228 225 227 222 210 216 212 212 211 211 209 205 201 200 198 195 195 194 199 204 208 207 209 211 207 208 210 214 218 225 233 234 241 243 243 54
266 272 281 282 291 294 293 271 278 258 262 242 236 231 226 224 219 220 220 220 213 209 209 207 207 201 198 196 194 196 203 206 205 209 213 215 212 209 211 215 216 219 222 231 236 242 248 270 291
272 270 266 270 288 284 290 290 254 250 263 266 233 231 222 222 223 220 217 218 210 210 211 210 208 207 204 200 198 201 205 208 210 210 214 214 215 216 214 220 222 223 222 227 233 240 236 239 245
269 270 276 279 285 284 277 270 180 211 241 238 227 227 229 222 223 227 218 216 211 210 209 210 207 207 205 203 202 203 205 204 205 205 206 204 209 211 218 225 225 226 229 231 235 237 237 235 241
258 269 271 266 271 271 273 275 223 273 235 236 230 236 226 228 225 226 220 210 216 209 211 211 208 208 209 208 209 207 208 212 209 208 209 210 211 220 224 226 228 230 234 236 239 240 242 244 244
251 247 258 256 250 263 323 261 284 230 234 233 234 239 231 230 223 219 212 210 213 209 210 212 210 211 212 211 212 213 215 216 216 217 216 216 219 225 227 228 232 235 237 240 241 243 243 244 245
249 237 241 254 277 294 267 269 278 252 256 261 252 253 246 230 224 215 216 214 212 211 211 214 212 213 211 212 214 217 218 219 219 221 219 221 225 229 231 230 231 233 239 247 244 244 245 244 245
254 238 251 267 277 280 280 284 272 265 249 258 250 215 242 238 224 217 218 215 211 212 213 214 212 211 212 214 214 217 221 222 223 225 227 229 230 236 235 235 233 238 242 248 248 250 248 239 242
245 254 245 244 262 269 273 288 287 194 235 219 250 240 235 236 227 216 217 214 213 214 213 213 213 211 211 211 216 221 222 222 223 229 232 232 237 238 238 236 238 242 249 246 249 253 251 235 241
255 242 249 259 264 280 278 261 281 239 234 252 267 261 233 228 231 222 218 216 215 212 208 212 212 213 213 216 220 223 230 228 229 232 233 237 239 236 235 237 246 250 245 245 247 249 248 245 247
248 255 237 247 251 257 269 261 291 264 243 242 251 254 227 235 237 231 217 216 214 215 215 217 215 216 215 219 223 228 235 222 225 230 235 240 241 240 241 244 245 246 243 247 247 249 249 249 251